TKJ1RE LTCD-LTAC

Flight info

Callsign TKJ1RE
Flight time 1h 4m
Altitude 34000
Route EZN UL615 SIV UT54 JUPNE UL614 GOBIT
Aircraft A21N/M-SDE3FGHIRWY/LB1

Departure

Time 2026-04-26 10:52
Airport Erzincan Airport (LTCD)

Arrival

Time 2026-04-26 11:57
Airport Esenboğa International Airport (LTAC)
Time Latitude Longitude Altitude Speed Heading
2026-04-26 10:25 39.71659 39.52112 3817 ft 0 kts 21°
2026-04-26 10:44 39.71647 39.52105 3816 ft 2 kts 24°
2026-04-26 10:44 39.71633 39.52097 3816 ft 2 kts 23°
2026-04-26 10:44 39.71619 39.52090 3815 ft 2 kts 22°
2026-04-26 10:45 39.71605 39.52083 3815 ft 2 kts 21°
2026-04-26 10:45 39.71591 39.52076 3814 ft 2 kts 22°
2026-04-26 10:45 39.71581 39.52063 3814 ft 2 kts 75°
2026-04-26 10:45 39.71581 39.52044 3814 ft 2 kts 115°
2026-04-26 10:46 39.71585 39.52032 3814 ft 0 kts 116°
2026-04-26 10:46 39.71586 39.52031 3814 ft 0 kts 115°
2026-04-26 10:48 39.71575 39.52065 3814 ft 6 kts 112°
2026-04-26 10:49 39.71547 39.52114 3813 ft 6 kts 165°
2026-04-26 10:49 39.71494 39.52096 3811 ft 8 kts 209°
2026-04-26 10:49 39.71477 39.52029 3810 ft 8 kts 285°
2026-04-26 10:49 39.71494 39.51966 3811 ft 6 kts 291°
2026-04-26 10:50 39.71516 39.51891 3813 ft 12 kts 291°
2026-04-26 10:50 39.71540 39.51810 3814 ft 16 kts 291°
2026-04-26 10:50 39.71607 39.51580 3816 ft 24 kts 291°
2026-04-26 10:50 39.71667 39.51376 3817 ft 22 kts 291°
2026-04-26 10:51 39.71714 39.51216 3815 ft 12 kts 291°
2026-04-26 10:51 39.71608 39.51096 3812 ft 10 kts 199°
2026-04-26 10:51 39.71576 39.51100 3812 ft 6 kts 130°
2026-04-26 10:52 39.71513 39.51300 3812 ft 58 kts 111°
2026-04-26 10:52 39.71285 39.52084 3805 ft 126 kts 112°
2026-04-26 10:52 39.70901 39.53401 3824 ft 179 kts 112°
2026-04-26 10:52 39.70465 39.54920 4412 ft 180 kts 112°
2026-04-26 10:53 39.70065 39.56443 5069 ft 184 kts 109°
2026-04-26 10:53 39.69678 39.58033 5759 ft 188 kts 109°
2026-04-26 10:53 39.69274 39.59675 6188 ft 200 kts 109°
2026-04-26 10:54 39.68355 39.63363 7022 ft 227 kts 109°
2026-04-26 10:54 39.67865 39.65315 7641 ft 230 kts 110°
2026-04-26 10:54 39.67365 39.67300 8281 ft 233 kts 110°
2026-04-26 10:54 39.66855 39.69291 8904 ft 235 kts 112°
2026-04-26 10:55 39.65953 39.71030 9455 ft 235 kts 144°
2026-04-26 10:55 39.64455 39.71688 10010 ft 232 kts 179°
2026-04-26 10:55 39.62894 39.71239 10567 ft 232 kts 207°
2026-04-26 10:55 39.61696 39.69888 11092 ft 234 kts 236°
2026-04-26 10:56 39.61158 39.67919 11628 ft 235 kts 264°
2026-04-26 10:56 39.61456 39.65866 12157 ft 239 kts 293°
2026-04-26 10:56 39.62491 39.64148 12727 ft 242 kts 311°
2026-04-26 10:56 39.63661 39.62591 13282 ft 243 kts 311°
2026-04-26 10:57 39.64831 39.61033 13812 ft 244 kts 311°
2026-04-26 10:57 39.66008 39.59448 14303 ft 246 kts 310°
2026-04-26 10:57 39.67188 39.57846 14776 ft 247 kts 310°
2026-04-26 10:57 39.68375 39.56227 15262 ft 249 kts 310°
2026-04-26 10:58 39.69578 39.54581 15733 ft 252 kts 309°
2026-04-26 10:58 39.70708 39.52777 15944 ft 265 kts 300°
2026-04-26 10:58 39.71622 39.50667 16222 ft 276 kts 293°
2026-04-26 10:58 39.72458 39.48369 16495 ft 290 kts 292°
2026-04-26 10:59 39.73320 39.45941 16766 ft 304 kts 292°
2026-04-26 10:59 39.74233 39.43377 17041 ft 318 kts 292°
2026-04-26 10:59 39.75173 39.40740 17386 ft 329 kts 292°
2026-04-26 10:59 39.76151 39.38012 17945 ft 332 kts 292°
2026-04-26 11:00 39.77124 39.35295 18527 ft 334 kts 293°
2026-04-26 11:00 39.78114 39.32527 19097 ft 337 kts 292°
2026-04-26 11:00 39.79095 39.29772 19642 ft 340 kts 292°
2026-04-26 11:00 39.80085 39.26997 20178 ft 343 kts 292°
2026-04-26 11:01 39.81090 39.24182 20679 ft 347 kts 292°
2026-04-26 11:01 39.82106 39.21331 21168 ft 349 kts 292°
2026-04-26 11:01 39.83128 39.18467 21651 ft 353 kts 292°
2026-04-26 11:01 39.84170 39.15541 22120 ft 356 kts 292°
2026-04-26 11:02 39.85209 39.12626 22580 ft 359 kts 292°
2026-04-26 11:02 39.86260 39.09674 23040 ft 362 kts 292°
2026-04-26 11:02 39.87317 39.06703 23488 ft 365 kts 292°
2026-04-26 11:02 39.88383 39.03710 23929 ft 367 kts 292°
2026-04-26 11:03 39.89466 39.00662 24366 ft 370 kts 292°
2026-04-26 11:03 39.90542 38.97626 24779 ft 373 kts 292°
2026-04-26 11:03 39.91629 38.94554 25192 ft 376 kts 291°
2026-04-26 11:03 39.92670 38.91435 25576 ft 377 kts 286°
2026-04-26 11:04 39.93299 38.88115 25953 ft 376 kts 275°
2026-04-26 11:04 39.93427 38.84738 26321 ft 375 kts 265°
2026-04-26 11:04 39.93240 38.81381 26704 ft 377 kts 263°
2026-04-26 11:04 39.93001 38.77982 27080 ft 379 kts 262°
2026-04-26 11:05 39.92754 38.74536 27435 ft 382 kts 262°
2026-04-26 11:05 39.92515 38.71120 27797 ft 384 kts 262°
2026-04-26 11:05 39.92271 38.67632 28167 ft 386 kts 262°
2026-04-26 11:05 39.92028 38.64098 28521 ft 389 kts 262°
2026-04-26 11:06 39.91788 38.60603 28864 ft 391 kts 262°
2026-04-26 11:06 39.91544 38.57059 29206 ft 393 kts 262°
2026-04-26 11:06 39.91302 38.53548 29528 ft 396 kts 262°
2026-04-26 11:06 39.91053 38.49948 29838 ft 399 kts 262°
2026-04-26 11:07 39.90806 38.46369 30151 ft 401 kts 262°
2026-04-26 11:07 39.90554 38.42749 30468 ft 403 kts 262°
2026-04-26 11:07 39.90300 38.39103 30768 ft 405 kts 262°
2026-04-26 11:07 39.90045 38.35466 31075 ft 407 kts 262°
2026-04-26 11:08 39.89788 38.31801 31371 ft 409 kts 262°
2026-04-26 11:08 39.89529 38.28127 31657 ft 411 kts 262°
2026-04-26 11:08 39.89265 38.24387 31945 ft 413 kts 262°
2026-04-26 11:08 39.89005 38.20720 32224 ft 414 kts 262°
2026-04-26 11:09 39.88738 38.16982 32496 ft 416 kts 262°
2026-04-26 11:09 39.88470 38.13234 32746 ft 418 kts 262°
2026-04-26 11:09 39.88198 38.09425 33003 ft 420 kts 262°
2026-04-26 11:09 39.87925 38.05626 33252 ft 422 kts 262°
2026-04-26 11:10 39.87648 38.01854 33488 ft 424 kts 262°
2026-04-26 11:10 39.87368 37.98028 33710 ft 426 kts 262°
2026-04-26 11:10 39.87085 37.94184 33952 ft 427 kts 262°
2026-04-26 11:10 39.86802 37.90371 34088 ft 428 kts 262°
2026-04-26 11:11 39.86233 37.82686 34095 ft 428 kts 262°
2026-04-26 11:11 39.85662 37.75010 34089 ft 429 kts 262°
2026-04-26 11:12 39.85085 37.67269 34091 ft 430 kts 262°
2026-04-26 11:12 39.84506 37.59562 34090 ft 430 kts 262°
2026-04-26 11:13 39.83923 37.51842 34088 ft 431 kts 263°
2026-04-26 11:13 39.83328 37.44103 34085 ft 431 kts 262°
2026-04-26 11:14 39.82713 37.36334 34086 ft 431 kts 262°
2026-04-26 11:14 39.82100 37.28646 34084 ft 431 kts 262°
2026-04-26 11:15 39.81483 37.20917 34075 ft 432 kts 262°
2026-04-26 11:15 39.80857 37.13137 34075 ft 432 kts 262°
2026-04-26 11:16 39.80233 37.05426 34068 ft 432 kts 262°
2026-04-26 11:16 39.79597 36.97633 34065 ft 433 kts 262°
2026-04-26 11:17 39.79004 36.89856 34064 ft 434 kts 264°
2026-04-26 11:17 39.78844 36.82058 34068 ft 434 kts 268°
2026-04-26 11:18 39.78791 36.74244 34066 ft 434 kts 268°
2026-04-26 11:18 39.78735 36.66395 34063 ft 434 kts 268°
2026-04-26 11:19 39.78671 36.58581 34063 ft 434 kts 268°
2026-04-26 11:19 39.78602 36.50734 34066 ft 435 kts 268°
2026-04-26 11:20 39.78540 36.44210 34060 ft 435 kts 268°
2026-04-26 11:20 39.78450 36.35029 34058 ft 435 kts 268°
2026-04-26 11:21 39.78365 36.27202 34053 ft 435 kts 267°
2026-04-26 11:21 39.77961 36.19529 34051 ft 435 kts 263°
2026-04-26 11:22 39.77356 36.11722 34049 ft 435 kts 263°
2026-04-26 11:22 39.76746 36.03920 34049 ft 435 kts 263°
2026-04-26 11:23 39.76194 35.96890 34049 ft 435 kts 263°
2026-04-26 11:23 39.75579 35.89083 34041 ft 436 kts 263°
2026-04-26 11:24 39.74960 35.81269 34044 ft 436 kts 263°
2026-04-26 11:24 39.74338 35.73461 34033 ft 436 kts 263°
2026-04-26 11:25 39.73709 35.65633 34030 ft 436 kts 263°
2026-04-26 11:25 39.73073 35.57841 34033 ft 437 kts 263°
2026-04-26 11:26 39.72419 35.50019 34032 ft 437 kts 263°
2026-04-26 11:26 39.71759 35.42182 34028 ft 437 kts 263°
2026-04-26 11:27 39.71100 35.34378 34029 ft 436 kts 263°
2026-04-26 11:27 39.70440 35.26585 34028 ft 437 kts 263°
2026-04-26 11:28 39.69775 35.18775 34028 ft 437 kts 263°
2026-04-26 11:28 39.69101 35.10942 34029 ft 437 kts 263°
2026-04-26 11:29 39.68422 35.03123 34033 ft 437 kts 263°
2026-04-26 11:29 39.67735 34.95262 34036 ft 438 kts 263°
2026-04-26 11:30 39.67161 34.88749 34035 ft 438 kts 263°
2026-04-26 11:30 39.66354 34.79659 34027 ft 437 kts 263°
2026-04-26 11:31 39.65654 34.71818 34021 ft 437 kts 263°
2026-04-26 11:31 39.64953 34.64030 34020 ft 437 kts 263°
2026-04-26 11:32 39.64241 34.56199 34015 ft 438 kts 263°
2026-04-26 11:32 39.63671 34.48338 34012 ft 438 kts 268°
2026-04-26 11:33 39.63934 34.40485 34013 ft 438 kts 277°
2026-04-26 11:33 39.65146 34.32732 34013 ft 437 kts 285°
2026-04-26 11:34 39.67126 34.25333 34007 ft 437 kts 290°
2026-04-26 11:34 39.69268 34.17927 34006 ft 438 kts 291°
2026-04-26 11:35 39.70323 34.14272 33893 ft 434 kts 290°
2026-04-26 11:35 39.71370 34.10621 33294 ft 428 kts 290°
2026-04-26 11:35 39.72404 34.07008 32182 ft 433 kts 290°
2026-04-26 11:35 39.73449 34.03344 31279 ft 431 kts 290°
2026-04-26 11:36 39.74471 33.99746 30679 ft 424 kts 290°
2026-04-26 11:36 39.75483 33.96172 29958 ft 419 kts 290°
2026-04-26 11:36 39.76430 33.92642 29246 ft 414 kts 287°
2026-04-26 11:36 39.77108 33.89051 28617 ft 409 kts 281°
2026-04-26 11:37 39.77490 33.85393 28119 ft 405 kts 275°
2026-04-26 11:37 39.77592 33.81770 27626 ft 401 kts 270°
2026-04-26 11:37 39.77585 33.78158 27130 ft 397 kts 269°
2026-04-26 11:37 39.77562 33.74584 26668 ft 393 kts 269°
2026-04-26 11:38 39.77539 33.71038 26213 ft 388 kts 269°
2026-04-26 11:38 39.77522 33.67603 25751 ft 385 kts 269°
2026-04-26 11:38 39.77506 33.64149 25270 ft 381 kts 269°
2026-04-26 11:38 39.77491 33.60708 24627 ft 383 kts 269°
2026-04-26 11:39 39.77477 33.57261 23755 ft 388 kts 270°
2026-04-26 11:39 39.77807 33.53754 23087 ft 389 kts 284°
2026-04-26 11:39 39.78806 33.50549 22586 ft 386 kts 299°
2026-04-26 11:39 39.80314 33.47670 22091 ft 382 kts 306°
2026-04-26 11:40 39.81899 33.44935 21563 ft 380 kts 306°
2026-04-26 11:40 39.83497 33.42200 21041 ft 377 kts 306°
2026-04-26 11:40 39.85066 33.39486 20451 ft 372 kts 306°
2026-04-26 11:40 39.86586 33.36829 19746 ft 368 kts 306°
2026-04-26 11:41 39.88106 33.34159 19025 ft 364 kts 305°
2026-04-26 11:42 39.98187 33.16295 14123 ft 338 kts 304°
2026-04-26 11:43 39.99577 33.13829 13438 ft 335 kts 304°
2026-04-26 11:43 40.00949 33.11402 12755 ft 332 kts 306°
2026-04-26 11:43 40.02589 33.09376 12034 ft 333 kts 328°
2026-04-26 11:43 40.04809 33.08532 11372 ft 332 kts 357°
2026-04-26 11:44 40.07044 33.09204 10937 ft 323 kts 27°
2026-04-26 11:44 40.08762 33.10938 10707 ft 308 kts 43°
2026-04-26 11:44 40.10285 33.12872 10462 ft 295 kts 43°
2026-04-26 11:44 40.11787 33.14619 10279 ft 284 kts 39°
2026-04-26 11:45 40.13295 33.16204 10105 ft 275 kts 37°
2026-04-26 11:45 40.14806 33.17701 9936 ft 266 kts 36°
2026-04-26 11:45 40.16278 33.19123 9679 ft 262 kts 35°
2026-04-26 11:45 40.17741 33.20526 9359 ft 261 kts 35°
2026-04-26 11:46 40.19206 33.21929 9018 ft 260 kts 35°
2026-04-26 11:46 40.20653 33.23316 8687 ft 259 kts 35°
2026-04-26 11:46 40.22109 33.24712 8363 ft 257 kts 35°
2026-04-26 11:46 40.23527 33.26075 8150 ft 250 kts 35°
2026-04-26 11:47 40.24916 33.27411 7974 ft 241 kts 35°
2026-04-26 11:47 40.26240 33.28684 7807 ft 232 kts 35°
2026-04-26 11:47 40.27513 33.29909 7640 ft 224 kts 35°
2026-04-26 11:47 40.28756 33.31105 7473 ft 215 kts 35°
2026-04-26 11:48 40.29946 33.32251 7285 ft 208 kts 34°
2026-04-26 11:48 40.31097 33.33358 6999 ft 206 kts 34°
2026-04-26 11:48 40.32313 33.34343 6669 ft 204 kts 13°
2026-04-26 11:48 40.33653 33.34338 6512 ft 192 kts 333°
2026-04-26 11:49 40.34733 33.33321 6539 ft 192 kts 311°
2026-04-26 11:49 40.35623 33.31995 6523 ft 194 kts 307°
2026-04-26 11:49 40.36469 33.30599 6513 ft 194 kts 302°
2026-04-26 11:49 40.36916 33.28990 6480 ft 189 kts 269°
2026-04-26 11:50 40.36776 33.27266 6514 ft 191 kts 258°
2026-04-26 11:50 40.36490 33.25552 6508 ft 192 kts 256°
2026-04-26 11:50 40.36176 33.23850 6506 ft 192 kts 256°
2026-04-26 11:50 40.35649 33.22242 6503 ft 192 kts 236°
2026-04-26 11:51 40.34800 33.20909 6508 ft 194 kts 224°
2026-04-26 11:51 40.33781 33.19748 6511 ft 194 kts 220°
2026-04-26 11:51 40.32706 33.18643 6505 ft 194 kts 219°
2026-04-26 11:51 40.31622 33.17572 6507 ft 194 kts 218°
2026-04-26 11:52 40.30544 33.16535 6501 ft 194 kts 217°
2026-04-26 11:52 40.29436 33.15484 6499 ft 194 kts 217°
2026-04-26 11:52 40.28336 33.14441 6402 ft 194 kts 217°
2026-04-26 11:52 40.27238 33.13400 6172 ft 193 kts 217°
2026-04-26 11:53 40.26156 33.12370 5918 ft 191 kts 217°
2026-04-26 11:53 40.25092 33.11357 5669 ft 190 kts 217°
2026-04-26 11:53 40.24020 33.10338 5421 ft 190 kts 218°
2026-04-26 11:54 40.21878 33.08297 5071 ft 187 kts 217°
2026-04-26 11:54 40.20853 33.07321 4797 ft 176 kts 217°
2026-04-26 11:54 40.19897 33.06412 4535 ft 164 kts 218°
2026-04-26 11:54 40.19019 33.05576 4305 ft 155 kts 217°
2026-04-26 11:55 40.18153 33.04752 4099 ft 153 kts 219°
2026-04-26 11:55 40.17286 33.03923 3918 ft 153 kts 217°
2026-04-26 11:55 40.16408 33.03109 3698 ft 153 kts 217°
2026-04-26 11:55 40.15557 33.02280 3521 ft 152 kts 217°
2026-04-26 11:56 40.14713 33.01474 3314 ft 151 kts 219°
2026-04-26 11:56 40.13849 33.00647 3173 ft 152 kts 216°
2026-04-26 11:56 40.13062 32.99892 3146 ft 124 kts 216°
2026-04-26 11:56 40.12506 32.99367 3141 ft 69 kts 214°
2026-04-26 11:57 40.12257 32.99215 3140 ft 24 kts 189°
2026-04-26 11:57 40.12138 32.99195 3141 ft 11 kts 186°
2026-04-26 11:57 40.12058 32.99184 3142 ft 11 kts 185°
2026-04-26 11:57 40.11983 32.99166 3143 ft 10 kts 204°
2026-04-26 11:58 40.11906 32.99099 3141 ft 17 kts 216°
2026-04-26 11:58 40.11788 32.98988 3139 ft 21 kts 216°
2026-04-26 11:58 40.11691 32.98894 3138 ft 9 kts 215°
2026-04-26 11:58 40.11643 32.98915 3138 ft 8 kts 128°
2026-04-26 11:59 40.11602 32.98975 3139 ft 8 kts 137°
2026-04-26 11:59 40.11565 32.99017 3140 ft 4 kts 140°
2026-04-26 11:59 40.11556 32.99028 3140 ft 0 kts 139°